Location: Bucharest
(44.4268°N, 26.1025°E)
Time: 19:44:15
(UTC+03:00)

SPROUT - Pass Details

Date: 02 July 2022
Orbit: 588 x 598 km, 97.9° (Epoch: 18 August)

Event Time Altitude Azimuth Distance (km) Brightness Sun altitude
Exits shadow 03:28:13 11° 270° (W) 1,835 ? -16.4°
Maximum altitude 03:28:16 11° 271° (W) 1,835 ? -16.4°
Drops below altitude 10° 03:29:31 10° 289° (WNW) 1,912 ? -16.3°
Sets 03:33:20 0° 325° (NW) 2,830 ? -15.9°
